Tracking 32936 objects as of 16-Jan-2026
HD Live streaming from Space Station
objects crossing your sky now

IRIDIUM 33 DEB

Track IRIDIUM 33 DEB now!
10-day predictions


NORAD ID: 35846
Int'l Code: 1997-051SW
Perigee: 740.5 km
Apogee: 769.1 km
Inclination: 86.4 °
Period: 99.8 minutes
Semi major axis: 7125 km
RCS: 0.0007 m2 (small)
Launch date: September 14, 1997
Source: United States (US)
Launch site: TYURATAM MISSILE AND SPACE COMPLEX (TTMTR)

Note: This is SATELLITE DEBRIS
Your satellite tracking list
Your tracking list is empty




NASA's NSSDC Master Catalog

Two Line Element Set (TLE):
1 35846U 97051SW  26015.04791717  .00000858  00000-0  24844-3 0  9994
2 35846  86.3727  44.6202 0020047  69.3371 290.9976 14.43282634718095
Source of the keplerian elements: AFSPC